CAPE
1003 752 896 1514 497 133 21 27 68 50 53 28 70 102 132 250 270 0 81 137 464 796 1062 1495 2055 2395 1642 1798 1819 1900 1983 1918 2164 2286 2099 2062 2189 2148 2103 2025 2052 1937 1944 1795 1536 1436 1549 1726 1842
405 786 1273 835 112 27 58 47 82 46 32 14 18 29 54 100 132 140 197 196 526 660 1067 1421 2534 2423 1807 1890 1941 2250 1918 1842 1980 2121 2151 2087 1967 2125 2063 1991 1973 1950 1899 1786 1698 1737 1649 1164 869
1018 1232 1166 589 53 18 20 61 87 149 79 6 0 0 5 64 180 279 151 385 609 752 1140 1675 2562 2342 1899 1901 1905 1841 1901 1559 1064 1144 1633 1874 1913 2177 2128 2086 2013 1788 1424 1083 923 1067 1257 1283 1388
1053 1249 1494 383 50 33 49 66 104 83 72 0 0 16 48 107 300 376 592 544 692 1036 1489 2375 2505 1902 1903 1950 2205 2263 1912 1837 2118 1114 1070 1480 1418 1936 2078 2007 1712 1373 1086 727 744 974 864 893 1243
295 1073 514 27 58 59 66 69 34 21 5 0 0 1 44 97 164 413 619 756 884 1205 1506 2005 2748 2598 2075 2477 1956 2234 2354 2047 2095 1521 1085 1219 1280 1543 1708 1622 1410 1205 885 639 969 1335 1365 1165 1282
225 1088 78 71 67 46 62 50 36 2 0 0 0 14 133 274 387 579 724 821 859 1083 1606 1379 2445 2601 2434 1904 2162 2165 1975 2060 1934 1651 1105 1291 1310 1397 1391 1290 1178 1127 879 932 1032 1299 1118 1011 923
122 493 72 50 51 41 38 45 68 99 3 0 0 21 187 358 385 516 558 396 653 1004 1223 1531 1861 1932 2004 1934 2015 1971 1816 1685 1611 1405 1528 1492 1520 1501 1453 1584 1529 1191 1128 1251 1079 810 1314 1065 1110
116 465 223 57 35 34 38 31 42 0 0 11 0 0 158 300 378 409 428 399 692 926 1074 1375 1606 1783 1736 1578 1945 1949 2085 1866 1868 1627 1508 1458 1563 1619 1585 2254 2247 1713 1487 1287 927 673 1121 1774 1844
81 681 64 13 3 30 72 32 44 17 0 3 33 0 107 395 290 439 467 486 438 687 734 1160 1383 1562 1353 1459 1562 2233 1822 1866 1882 1977 2105 2308 1518 1524 1298 1790 1956 1961 1921 1786 1696 1644 1673 1884 2163
261 510 35 17 0 47 50 13 5 1 72 136 96 13 103 211 339 422 414 544 595 712 749 1105 1118 1428 1327 376 921 1157 1202 1519 1518 1369 1679 2062 1923 1570 1585 1830 3350 3426 3397 3356 3158 3315 2991 2773 1505
478 213 44 26 5 6 0 0 9 2 4 33 55 0 1 177 248 256 392 447 502 738 805 296 798 1192 1500 158 589 561 1303 1473 1516 1836 1685 1527 1603 1665 1832 1347 1832 1874 2296 1277 1140 2743 2963 746 540
322 60 43 38 16 0 0 25 20 0 0 0 0 0 0 0 147 199 325 278 403 401 533 116 564 1046 1097 838 857 583 970 1047 1471 1415 964 845 1199 1836 1406 1430 1552 1786 627 138 1153 1631 1434 323 521
204 31 29 20 12 10 43 51 126 45 42 9 0 0 0 0 0 59 205 321 412 317 287 37 340 478 661 1222 646 624 494 421 1133 457 479 523 788 1358 1892 1270 994 1301 1141 1208 1405 1506 550 669 370
168 68 1 6 24 17 24 58 30 59 41 8 0 2 29 17 12 17 33 280 442 281 117 652 984 1022 816 899 383 177 4 124 702 1216 448 699 558 1946 1963 685 1015 1161 907 1080 1272 1165 679 93 108
136 75 69 0 0 0 0 5 25 38 25 0 0 11 55 101 76 19 37 92 256 293 346 290 709 924 1032 962 791 408 381 349 572 1326 915 137 1418 1562 1851 1004 1559 1206 1035 866 1032 1131 588 83 183
206 199 144 38 35 209 10 5 0 11 0 0 0 5 30 105 125 149 104 34 149 910 741 343 668 682 1096 914 1112 1430 1066 541 874 1283 1281 1099 1190 1166 1210 1102 1845 1074 678 813 1636 1148 1052 1055 899
238 243 101 80 135 111 86 18 0 0 0 0 0 17 27 99 221 302 400 312 196 810 641 270 391 580 891 1097 1335 1412 832 688 811 1107 1297 1172 1075 1112 696 765 1168 837 538 922 2004 1717 1340 957 795
101 82 57 18 134 79 51 25 0 0 1 3 4 1 32 113 144 246 406 347 468 549 576 276 294 554 796 1345 1816 1265 1154 567 1236 1033 1164 1198 721 764 813 885 754 938 549 1577 1438 1510 1411 1602 1788
111 114 105 132 177 162 78 10 10 0 1 0 0 0 48 51 156 228 401 366 712 756 703 442 923 686 1234 1135 1079 1061 1583 1355 955 971 1063 1286 1250 1045 1253 1301 1559 1439 1846 1066 894 965 1151 951 955
195 164 294 310 388 204 123 150 38 25 19 8 0 0 69 92 130 177 342 440 510 713 704 340 1329 854 1451 971 946 1278 1903 960 1391 657 685 710 805 886 1326 1660 1488 2330 1559 1317 1440 1733 968 865 1010
377 301 341 476 405 245 79 17 26 43 125 24 22 15 110 150 106 218 371 556 446 450 587 1046 1112 962 807 719 1448 1503 1711 1605 1375 842 816 851 1206 724 856 1089 1793 2155 2250 1525 1913 1822 1652 1561 1654
78 165 377 313 245 156 165 56 33 4 71 68 74 62 115 219 183 266 342 484 559 771 879 1245 1253 995 650 1066 1259 1427 1298 1070 908 888 696 620 709 628 509 715 979 889 1395 1381 1672 1875 1805 1780 1513
2 0 197 505 598 184 125 62 40 59 102 114 39 60 157 289 341 369 358 354 593 785 880 1048 1270 1048 807 1264 1438 1356 1274 944 802 611 274 96 129 249 1201 508 563 585 774 1159 1197 1460 1716 1860 1930
0 0 0 0 82 405 328 255 62 73 35 198 41 60 121 394 312 397 502 570 601 811 895 1108 1337 1519 1330 1302 1334 1205 880 1113 776 835 689 632 656 304 694 435 49 132 642 572 885 975 1094 1515 1713
0 0 0 0 0 0 184 341 193 117 221 618 649 434 151 354 475 506 500 666 623 837 1056 1041 704 636 706 827 872 871 853 739 718 496 479 302 219 579 256 170 171 289 584 789 1057 1236 1424 1418 1379
0 0 0 0 0 1 348 532 489 263 494 781 676 267 209 267 500 582 869 1338 1329 1183 1193 934 657 419 480 969 549 310 339 276 61 42 4 84 15 27 93 114 69 61 53 56 7 24 610 708 1478
0 0 0 0 0 0 606 759 603 486 375 649 478 158 249 1383 1358 1041 1124 1323 1296 1093 801 609 618 407 343 461 472 294 158 78 44 17 0 10 0 13 1 0 0 10 18 40 20 5 0 2 425
0 0 1 0 0 8 247 1080 1019 800 728 571 599 680 743 1323 1266 1138 1063 919 873 822 702 733 594 540 497 379 308 195 115 93 88 62 11 0 0 0 0 0 0 0 0 0 0 0 0 3 0
0 0 0 0 0 0 0 690 1006 1442 1090 918 685 761 726 1020 1211 937 778 774 751 788 639 600 442 482 392 203 133 101 81 88 83 51 26 24 0 0 0 0 0 0 0 0 0 0 0 0 0
0 0 0 0 0 6 7 1128 1593 1359 1166 1063 933 894 913 838 820 780 837 814 698 751 730 626 320 268 217 246 187 161 118 155 106 1 0 0 0 0 0 0 0 0 0 0 0 0 0 0 0
CIN
-143 -93 -66 -1 -30 -53 -10 -4 -19 -3 -28 -0 -34 -117 -100 -60 -10 -9 -19 -10 -20 -9 -3 -1 -0 -0 -0 -0 -0 -0 -0 -0 -0 -0 -0 -0 -0 -0 -0 -0 -0 -0 -0 -0 -0 -0 -3 -7 -8
-181 -46 -6 -49 -32 -20 -17 -14 -22 -34 -45 -44 -138 -155 -160 -46 -82 -89 -33 -20 -22 -11 -5 -2 -0 -0 -0 -0 -0 -0 -0 -0 -0 -0 -0 -0 -0 -0 -0 -0 -0 -0 -0 -0 -0 -0 -0 -28 -45
-114 -10 -13 -53 -29 -33 -28 -4 -43 -18 -76 -90 -0 -0 -155 -131 -68 -89 -67 -22 -33 -29 -10 -0 -0 -0 -0 -0 -0 -0 -0 -0 -3 -2 -0 -0 -0 -0 -0 -0 -0 -0 -0 -4 -15 -21 -26 -32 -31
-58 -16 -48 -33 -47 -0 -13 -18 -16 -28 -47 -3 -0 -44 -118 -112 -66 -49 -18 -22 -41 -18 -1 -0 -0 -0 -0 -0 -0 -0 -0 -0 -0 -10 -15 -0 -5 -0 -0 -0 -0 -1 -23 -60 -61 -51 -72 -65 -43
-255 -34 -53 -7 -3 -5 -42 -40 -97 -61 -35 -33 -0 -58 -119 -108 -68 -38 -23 -34 -38 -8 -0 -0 -0 -0 -0 -0 -0 -0 -0 -0 -0 -1 -29 -25 -25 -16 -9 -9 -23 -47 -88 -122 -87 -61 -60 -77 -58
-29 -56 -31 -12 -17 -28 -89 -16 -22 -6 -0 -0 -0 -51 -74 -31 -16 -12 -22 -28 -39 -22 -1 -5 -0 -0 -0 -0 -0 -0 -1 -0 -0 -8 -58 -47 -50 -48 -51 -67 -83 -95 -128 -122 -121 -105 -116 -126 -128
-106 -122 -23 -5 -9 -37 -3 -19 -65 -42 -48 -0 -0 -204 -57 -23 -15 -19 -6 -50 -55 -38 -26 -11 -1 -0 -0 -4 -5 -3 -11 -14 -13 -43 -51 -62 -64 -74 -78 -79 -91 -118 -125 -124 -152 -173 -120 -142 -141
-109 -193 -55 -30 -9 -4 -10 -11 -137 -1 -0 -6 -0 -0 -76 -37 -27 -8 -13 -31 -41 -39 -34 -26 -18 -5 -24 -42 -30 -24 -20 -23 -26 -47 -64 -70 -73 -89 -103 -80 -90 -121 -118 -135 -166 -178 -141 -92 -92
-361 -125 -7 -12 -7 -11 -60 -40 -60 -23 -0 -21 -47 -0 -91 -8 -36 -5 -11 -27 -22 -36 -48 -43 -36 -27 -59 -83 -60 -26 -31 -33 -32 -48 -48 -58 -105 -122 -161 -153 -142 -133 -124 -121 -92 -96 -97 -91 -86
-284 -139 -0 -6 -0 -17 -23 -38 -11 -0 -44 -43 -44 -57 -63 -39 -31 -46 -34 -11 -11 -23 -44 -55 -46 -50 -71 -80 -114 -110 -94 -10 -20 -113 -90 -87 -84 -128 -133 -170 -94 -88 -28 -15 -51 -57 -73 -69 -112
-46 -56 -9 -10 -5 -7 -0 -0 -3 -4 -20 -41 -49 -0 -15 -33 -40 -61 -44 -46 -24 -36 -35 -63 -23 -35 -41 -96 -60 -57 -17 -25 -26 -21 -60 -74 -81 -72 -82 -127 -151 -161 -142 -46 -42 -118 -56 -122 -167
-51 -9 -14 -14 -0 -0 -0 -7 -6 -0 -0 -0 -0 -0 -0 -0 -47 -37 -42 -58 -36 -47 -46 -19 -14 -27 -45 -34 -93 -23 -46 -29 -24 -18 -4 -186 -169 -25 -68 -71 -103 -129 -96 -47 -15 -141 -80 -200 -244
-48 -9 -6 -2 -5 -8 -3 -16 -24 -89 -105 -25 -0 -0 -0 -0 -0 -49 -58 -26 -36 -46 -32 -96 -24 -25 -46 -34 -20 -70 -40 -41 -17 -144 -5 -202 -264 -24 -88 -15 -12 -57 -59 -41 -19 -29 -41 -126 -114
-11 -12 -6 -20 -13 -6 -8 -7 -33 -27 -59 -20 -0 -12 -32 -9 -5 -35 -70 -28 -22 -42 -68 -15 -42 -37 -59 -42 -20 -21 -1 -83 -15 -69 -32 -189 -12 -66 -57 -11 -12 -27 -38 -52 -85 -28 -31 -122 -316
-159 -21 -9 -0 -0 -0 -0 -11 -17 -13 -27 -0 -0 -3 -66 -40 -18 -9 -59 -87 -31 -61 -39 -30 -50 -43 -59 -54 -46 -40 -27 -29 -15 -30 -18 -44 -23 -61 -75 -39 -14 -48 -76 -87 -109 -81 -27 -476 -72
-66 -128 -53 -12 -11 -16 -9 -14 -0 -25 -0 -0 -0 -2 -9 -64 -82 -80 -60 -14 -41 -32 -24 -61 -26 -69 -56 -65 -69 -65 -24 -42 -12 -39 -98 -29 -39 -40 -48 -19 -43 -82 -71 -87 -21 -29 -40 -31 -33
-137 -138 -29 -74 -28 -32 -2 -21 -0 -0 -0 -0 -0 -0 -40 -43 -59 -49 -38 -14 -69 -37 -32 -30 -36 -41 -49 -61 -54 -30 -30 -31 -38 -41 -51 -46 -38 -36 -47 -58 -51 -68 -87 -81 -65 -44 -87 -79 -164
-133 -73 -36 -43 -23 -41 -13 -48 -0 -0 -1 -8 -2 -0 -61 -60 -75 -58 -39 -36 -66 -38 -29 -87 -82 -52 -64 -29 -32 -39 -46 -48 -53 -47 -46 -59 -37 -51 -47 -47 -49 -37 -44 -62 -69 -87 -80 -82 -84
-29 -46 -236 -84 -31 -7 -36 -25 -10 -0 -5 -0 -0 -0 -87 -89 -68 -79 -40 -45 -57 -38 -51 -40 -25 -49 -65 -38 -40 -53 -47 -43 -21 -17 -41 -12 -19 -3 -28 -21 -37 -20 -25 -12 -46 -68 -51 -95 -91
-158 -128 -173 -56 -41 -5 -118 -114 -191 -197 -31 -43 -0 -0 -77 -72 -48 -67 -60 -49 -54 -47 -27 -50 -35 -62 -29 -69 -66 -22 -44 -75 -40 -95 -30 -19 -10 -48 -76 -36 -18 -21 -9 -36 -60 -9 -16 -62 -45
-182 -211 -187 -141 -150 -28 -20 -62 -86 -75 -75 -70 -137 -137 -50 -48 -43 -47 -79 -53 -24 -65 -66 -44 -37 -36 -57 -38 -31 -25 -21 -32 -42 -63 -139 -208 -158 -64 -37 -18 -21 -49 -24 -24 -21 -36 -11 -14 -9
-27 -104 -40 -46 -15 -76 -61 -93 -123 -86 -73 -36 -101 -125 -49 -65 -50 -57 -56 -58 -79 -71 -57 -44 -44 -69 -74 -64 -39 -21 -21 -22 -29 -8 -37 -35 -66 -164 -52 -164 -15 -24 -42 -22 -39 -16 -42 -23 -31
-5 -0 -62 -45 -45 -28 -20 -15 -31 -143 -97 -59 -61 -61 -86 -118 -119 -131 -86 -73 -65 -71 -79 -72 -77 -90 -54 -51 -40 -38 -41 -35 -31 -22 -28 -166 -49 -164 -86 -83 -3 -17 -58 -22 -53 -52 -46 -33 -9
-0 -0 -0 -0 -72 -52 -22 -132 -83 -192 -80 -84 -167 -54 -104 -102 -62 -72 -63 -53 -64 -56 -69 -75 -42 -33 -26 -68 -39 -24 -32 -50 -35 -72 -85 -65 -59 -168 -60 -124 -171 -48 -124 -175 -67 -60 -62 -46 -39
-0 -0 -0 -0 -0 -0 -154 -84 -89 -197 -162 -133 -139 -40 -50 -41 -59 -59 -36 -30 -37 -55 -81 -84 -100 -50 -114 -46 -40 -37 -57 -61 -64 -59 -127 -55 -56 -35 -53 -46 -49 -53 -119 -98 -61 -34 -21 -29 -30
-0 -0 -0 -0 -0 -0 -42 -44 -57 -139 -151 -55 -41 -35 -30 -16 -35 -43 -133 -192 -141 -109 -59 -21 -54 -9 -118 -17 -45 -38 -42 -34 -34 -22 -9 -140 -218 -195 -93 -105 -159 -156 -191 -36 -289 -240 -123 -107 -15
-0 -0 -0 -0 -0 -0 -35 -69 -30 -100 -99 -58 -28 -78 -58 -53 -221 -206 -168 -118 -93 -78 -44 -57 -53 -61 -108 -74 -50 -49 -41 -33 -29 -122 -0 -198 -115 -82 -340 -0 -0 -233 -231 -211 -246 -256 -0 -123 -188
-0 -0 -3 -0 -0 -1 -23 -50 -88 -35 -167 -94 -84 -127 -98 -58 -167 -142 -118 -105 -112 -86 -51 -46 -75 -93 -55 -72 -78 -62 -45 -43 -38 -29 -33 -0 -0 -0 -0 -0 -0 -0 -0 -0 -0 -0 -0 -228 -0
-0 -0 -0 -0 -0 -0 -0 -15 -30 -104 -109 -87 -90 -65 -77 -123 -115 -110 -97 -103 -96 -87 -95 -60 -48 -68 -52 -53 -59 -56 -49 -23 -3 -7 -11 -18 -0 -0 -0 -0 -0 -0 -0 -0 -0 -0 -0 -0 -0
-0 -0 -0 -0 -0 -8 -45 -47 -67 -79 -49 -116 -55 -97 -86 -63 -46 -114 -70 -62 -71 -81 -47 -30 -26 -19 -28 -28 -32 -26 -38 -14 -2 -17 -0 -0 -0 -0 -0 -0 -0 -0 -0 -0 -0 -0 -0 -0 -0
Wind_Speed
16 16 16 21 15 15 nan nan nan nan nan nan nan 7 10 13 10 nan nan 9 8 3 5 7 7 6 3 3 6 5 3 4 6 7 7 5 5 5 5 5 5 5 5 4 4 7 8 12 14
24 21 22 17 15 nan nan nan nan nan nan nan nan nan nan 14 8 4 4 8 8 5 4 7 7 4 1 5 3 2 3 5 6 6 5 3 2 2 3 4 6 6 7 8 8 8 11 14 16
23 22 26 18 nan nan nan nan nan 4 nan nan nan nan nan nan 2 9 8 9 7 5 5 5 8 5 3 3 2 2 4 5 6 4 4 2 1 3 5 7 8 8 9 10 10 12 14 16 19
24 25 22 24 nan nan nan nan 4 nan nan nan nan nan nan 4 3 6 12 12 8 7 6 9 9 5 3 1 2 5 4 3 6 7 4 3 5 6 8 9 9 10 11 12 12 14 16 19 22
28 25 25 nan nan nan nan nan nan nan nan nan nan nan nan nan 10 7 10 11 10 7 6 7 8 5 4 3 5 7 6 5 8 7 4 4 8 10 11 11 11 12 13 13 12 14 15 21 22
26 29 nan nan nan nan nan nan nan nan nan nan nan nan 9 11 7 8 9 12 13 11 9 8 11 11 5 6 7 9 7 7 5 4 4 8 10 12 13 13 13 14 14 13 13 14 15 22 25
14 24 nan nan nan nan nan nan nan nan nan nan nan nan 4 11 6 9 9 13 15 12 8 5 6 9 4 6 6 7 6 3 3 5 6 8 12 14 15 16 16 16 16 15 16 15 17 22 26
13 18 19 nan nan nan nan nan nan nan nan nan nan nan 6 12 14 10 6 11 15 14 12 9 7 7 8 3 8 7 6 4 4 5 9 11 13 16 17 17 18 19 17 17 17 16 18 24 27
nan 12 nan nan nan nan nan nan nan nan nan nan nan nan 14 19 15 12 5 8 10 13 14 10 7 14 8 6 6 7 7 6 7 9 12 15 15 18 19 18 20 18 18 16 17 18 18 19 24
20 16 nan nan nan nan nan nan nan nan nan 16 nan nan 18 23 20 17 15 8 7 13 11 3 10 16 11 9 7 11 10 11 11 14 16 14 17 14 20 21 20 19 10 11 17 23 21 17 11
20 17 nan nan nan nan nan nan nan nan nan nan nan nan nan 20 18 19 15 13 10 8 10 11 10 14 14 7 6 10 8 14 12 8 13 15 22 17 13 13 11 6 8 11 13 11 13 16 13
18 nan nan nan nan nan nan nan nan nan nan nan nan nan nan nan 18 16 17 19 16 9 8 7 12 13 9 8 8 8 9 11 13 8 3 18 14 20 15 11 12 10 8 9 9 5 7 13 28
13 nan nan nan nan nan nan nan 11 nan nan nan nan nan nan nan nan nan 12 15 9 5 3 nan 6 5 8 8 4 9 14 12 9 14 2 5 20 19 10 4 2 6 5 6 4 5 10 8 5
38 nan nan nan nan nan nan nan nan nan nan nan nan nan nan nan nan nan nan 16 7 1 4 5 4 3 4 5 2 7 nan 10 8 15 11 16 16 10 7 2 3 4 2 4 2 9 6 nan 12
26 nan nan nan nan nan nan nan nan nan nan nan nan nan nan 8 nan nan nan nan 7 2 5 4 4 3 3 6 6 8 8 6 8 8 13 13 6 9 3 8 4 6 3 1 3 12 8 nan 3
23 13 5 nan nan 3 nan nan nan nan nan nan nan nan nan 17 15 12 12 nan 6 2 3 5 1 1 3 8 8 8 3 3 8 8 6 7 6 3 4 3 4 3 0 1 4 14 7 8 9
28 12 8 nan 9 9 nan nan nan nan nan nan nan nan nan nan 16 13 10 12 7 6 2 5 2 3 6 7 6 6 3 4 4 6 6 7 4 2 4 3 3 3 2 3 4 8 13 15 13
28 nan nan nan 11 nan nan nan nan nan nan nan nan nan nan 16 16 14 12 12 7 5 5 1 0 6 7 4 1 2 1 2 2 1 4 2 2 6 7 7 8 7 7 7 8 8 4 3 3
31 17 6 13 5 14 nan nan nan nan nan nan nan nan nan nan 14 17 17 14 12 10 9 7 7 9 12 8 7 6 5 6 8 7 11 6 8 6 7 7 9 9 10 8 8 6 5 4 3
22 12 4 22 4 12 20 10 nan nan nan nan nan nan nan nan 11 12 17 17 16 13 10 8 11 12 11 10 7 8 10 12 11 12 14 12 13 12 10 8 8 10 11 11 11 9 7 6 7
28 36 29 30 32 12 nan nan nan nan 20 nan nan nan 18 18 15 15 17 15 14 15 12 10 13 13 12 12 10 11 14 10 11 18 14 19 20 21 21 14 10 13 11 9 11 11 10 10 8
nan 34 34 34 23 21 16 nan nan nan nan nan nan nan 14 18 16 15 16 17 17 14 13 15 16 16 13 13 11 13 14 14 12 18 18 21 25 25 23 22 18 23 18 13 12 17 15 14 12
nan nan 34 36 28 29 18 nan nan nan 10 10 nan nan 30 24 25 24 21 16 19 19 16 16 20 21 23 18 18 19 21 21 15 20 24 nan 24 24 30 21 15 25 23 21 20 21 20 18 15
nan nan nan nan nan 23 26 33 nan nan nan 13 nan nan 32 29 24 24 22 22 21 22 24 25 26 9 16 18 12 20 19 13 17 19 23 27 27 29 28 44 nan 18 19 21 20 21 21 21 20
nan nan nan nan nan nan 28 24 18 20 20 14 17 21 22 25 26 30 31 28 27 21 28 27 29 13 15 19 23 20 25 26 24 25 25 28 28 31 23 31 27 22 20 23 22 27 23 22 20
nan nan nan nan nan nan 35 39 19 20 26 28 26 18 20 23 28 39 44 38 36 32 36 36 25 23 25 26 27 24 25 26 nan nan nan nan nan nan nan 29 nan nan nan nan nan nan 29 27 24
nan nan nan nan nan nan 20 27 30 26 36 34 28 15 23 25 43 44 52 41 39 35 34 34 33 36 33 31 28 30 30 nan nan nan nan nan nan nan nan nan nan nan nan nan nan nan nan nan 27
nan nan nan nan nan nan 19 30 33 39 33 34 29 31 27 28 39 44 47 45 43 43 41 42 40 37 33 33 34 35 35 nan nan nan nan nan nan nan nan nan nan nan nan nan nan nan nan nan nan
nan nan nan nan nan nan nan 17 37 44 50 38 30 27 30 36 43 44 45 46 51 46 46 46 43 44 43 40 41 39 nan nan nan nan nan nan nan nan nan nan nan nan nan nan nan nan nan nan nan
nan nan nan nan nan nan nan 29 42 54 37 33 33 36 38 43 45 45 45 47 48 46 47 45 42 44 44 43 44 47 45 47 48 nan nan nan nan nan nan nan nan nan nan nan nan nan nan nan nan
Wind_Direction
108 117 130 104 122 123 nan nan nan nan nan nan nan 187 219 150 124 nan nan 27 348 18 36 39 16 335 298 190 169 181 202 277 290 296 294 302 312 328 355 12 30 39 45 73 42 31 20 27 18
127 103 109 109 112 nan nan nan nan nan nan nan nan nan nan 208 221 326 63 341 339 351 31 35 347 334 225 162 177 170 317 301 291 299 296 297 339 329 21 51 66 64 71 71 58 46 26 29 38
133 121 123 121 nan nan nan nan nan 232 nan nan nan nan nan nan 285 102 357 333 304 312 12 353 330 327 222 182 261 330 332 311 312 314 305 314 35 52 77 79 85 84 82 79 66 48 39 45 60
130 108 106 99 nan nan nan nan 240 nan nan nan nan nan nan 266 314 351 318 314 308 326 347 337 334 305 251 331 318 291 285 318 335 328 331 1 60 84 93 94 90 86 85 80 68 53 48 63 67
123 109 96 nan nan nan nan nan nan nan nan nan nan nan nan nan 319 331 299 306 321 334 0 352 332 308 287 276 290 342 321 310 341 342 354 49 71 86 91 88 85 84 83 80 67 57 52 68 76
90 112 nan nan nan nan nan nan nan nan nan nan nan nan 257 304 291 304 323 325 332 337 357 352 343 319 265 284 314 326 331 331 335 358 24 66 75 82 82 81 80 80 78 77 70 64 62 70 76
155 120 nan nan nan nan nan nan nan nan nan nan nan nan 324 317 318 325 339 312 321 331 328 1 351 311 275 267 328 342 341 355 35 64 57 68 82 71 69 74 82 83 80 78 73 71 73 78 83
128 124 113 nan nan nan nan nan nan nan nan nan nan nan 319 300 292 308 321 321 325 325 334 350 321 121 168 108 360 11 26 40 74 99 100 85 82 80 71 69 77 81 86 85 84 95 102 103 98
nan 112 nan nan nan nan nan nan nan nan nan nan nan nan 302 309 304 307 302 304 319 311 327 340 42 113 121 62 38 51 60 63 73 74 72 89 97 102 83 74 72 78 85 97 107 99 91 94 109
134 103 nan nan nan nan nan nan nan nan nan 296 nan nan 319 320 319 321 327 318 298 321 354 65 86 99 85 62 48 69 72 82 84 90 88 91 95 96 92 70 67 74 93 90 90 87 82 81 85
78 84 nan nan nan nan nan nan nan nan nan nan nan nan nan 330 332 331 340 341 7 336 38 93 79 79 78 75 73 95 106 87 88 93 140 125 117 97 77 91 92 109 79 64 89 74 118 158 167
110 nan nan nan nan nan nan nan nan nan nan nan nan nan nan nan 345 347 350 351 348 359 26 55 77 77 92 119 85 95 85 91 121 111 96 144 122 109 94 80 67 57 72 64 48 14 351 235 157
86 nan nan nan nan nan nan nan 306 nan nan nan nan nan nan nan nan nan 353 348 328 347 80 nan 120 105 115 108 108 94 87 109 116 118 139 108 97 95 98 102 96 70 96 87 121 219 265 308 78
127 nan nan nan nan nan nan nan nan nan nan nan nan nan nan nan nan nan nan 342 297 244 109 192 161 169 159 118 65 105 nan 102 116 109 90 62 60 108 109 134 131 132 48 88 86 302 18 nan 339
128 nan nan nan nan nan nan nan nan nan nan nan nan nan nan 4 nan nan nan nan 334 155 170 211 284 165 161 122 71 52 84 73 101 112 96 81 133 124 126 153 85 31 20 83 263 360 311 nan 206
158 150 157 nan nan 189 nan nan nan nan nan nan nan nan nan 333 333 330 347 nan 34 297 163 155 252 319 79 78 102 131 91 17 70 93 67 78 81 60 164 227 28 50 51 149 334 332 326 11 352
178 155 129 nan 2 340 nan nan nan nan nan nan nan nan nan nan 314 333 355 1 349 335 333 92 95 356 39 63 84 83 80 138 10 40 31 18 37 215 241 256 92 32 301 262 226 276 325 351 1
43 nan nan nan 35 nan nan nan nan nan nan nan nan nan nan 312 329 330 327 317 312 298 314 48 32 317 332 346 313 66 2 359 242 288 15 1 310 295 252 227 198 179 206 231 238 248 265 308 329
30 43 30 15 153 222 nan nan nan nan nan nan nan nan nan nan 338 331 330 321 308 306 301 305 285 303 296 286 287 269 267 252 279 253 253 248 216 209 274 256 240 231 224 239 250 263 245 244 269
23 6 333 204 215 233 287 288 nan nan nan nan nan nan nan nan 313 312 319 322 318 315 308 293 289 294 288 283 280 277 279 274 265 248 250 244 244 253 228 229 254 244 242 243 258 257 258 269 256
19 0 339 315 296 293 nan nan nan nan 294 nan nan nan 345 342 328 322 323 321 317 324 320 313 293 293 286 288 273 277 267 254 269 262 266 255 253 255 263 240 257 265 265 252 268 264 281 273 262
nan 0 326 315 317 324 322 nan nan nan nan nan nan nan 348 332 334 327 322 327 331 328 319 302 294 292 292 283 273 282 279 271 255 265 256 260 256 251 255 253 248 255 259 260 259 269 264 264 271
nan nan 306 349 315 295 307 nan nan nan 328 282 nan nan 325 334 338 337 329 324 327 320 330 325 318 318 322 309 296 277 278 269 263 272 279 nan 266 265 253 236 229 260 262 256 262 260 265 278 276
nan nan nan nan nan 278 333 307 nan nan nan 291 nan nan 304 307 312 314 312 306 311 314 327 309 272 266 313 256 265 292 318 254 260 270 276 277 282 273 283 282 nan 246 263 255 269 273 265 267 270
nan nan nan nan nan nan 311 287 301 309 309 334 296 316 281 285 305 304 303 294 303 309 304 291 297 324 289 260 255 267 280 279 294 279 271 270 269 271 274 284 285 266 270 270 264 252 262 268 272
nan nan nan nan nan nan 299 306 293 322 292 273 279 283 250 266 300 316 275 280 280 284 281 289 278 283 272 271 274 286 285 293 nan nan nan nan nan nan nan 278 nan nan nan nan nan nan 266 264 273
nan nan nan nan nan nan 269 270 260 249 264 277 283 267 257 259 279 280 277 275 283 275 269 268 274 276 278 279 284 279 276 nan nan nan nan nan nan nan nan nan nan nan nan nan nan nan nan nan 256
nan nan nan nan nan nan 263 301 296 285 283 299 277 277 276 289 282 290 288 285 279 274 272 267 264 266 268 271 273 275 273 nan nan nan nan nan nan nan nan nan nan nan nan nan nan nan nan nan nan
nan nan nan nan nan nan nan 273 300 286 293 286 280 281 280 273 272 270 271 275 275 271 270 269 268 268 268 270 272 272 nan nan nan nan nan nan nan nan nan nan nan nan nan nan nan nan nan nan nan
nan nan nan nan nan nan nan 264 254 262 261 269 266 263 262 265 266 270 272 272 278 277 272 275 274 273 276 277 273 276 277 276 277 nan nan nan nan nan nan nan nan nan nan nan nan nan nan nan nan